Regional Weather Roundup
Issued by NWS

Home | Current Version | Previous Version | Text Only | Print | Product List | Glossary Off
Versions: 1 2 3 4 5 6 7 8 9 10 11 12 13 14 15 16 17 18 19 20 21 22 23 24 25 26 27

000
ASUS45 KSLC 270810
RWRUT

UTAH REGIONAL WEATHER ROUNDUP
NATIONAL WEATHER SERVICE SALT LAKE CITY UT
200 AM MDT FRI MAY 27 2016

UTZ001>011-023>025-270900-

NORTHERN UTAH

CITY           SKY/WX    TMP DP  RH WIND       PRES   REMARKS
BRIGHAM CITY     N/A     53  46  79 SE5       29.96S
HILL AFB       PTCLDY    50  40  66 E14       29.97S
LOGAN          PTCLDY    47  43  86 NE3       29.96S
OGDEN          MOCLDY    52  40  63 S10       29.95F
PROVO AIRPORT  PTCLDY    48  37  66 E8        29.99S
SALT LAKE CITY PTCLDY    56  40  55 SE8       29.96S
VERNAL         CLOUDY    51  38  60 E5        29.95S
WENDOVER       CLOUDY    57  37  47 W7        29.97S
HEBER CITY     CLEAR     36  34  93 CALM      30.02S
WEST JORDAN    CLEAR     50  39  66 S3        29.98S

$$

UTZ012>022-026-027-270900-

SOUTHERN/CENTRAL UTAH

CITY           SKY/WX    TMP DP  RH WIND       PRES   REMARKS
BLANDING       PTCLDY    43  31  63 CALM      30.03F
BRYCE CANYON   PTCLDY    37  31  78 N7        30.09S WCI  32
CEDAR CITY     CLEAR     42  35  76 N6        30.02S
DELTA          PTCLDY    45  37  76 E7        29.99F
HANKSVILLE     PTCLDY    46  30  53 CALM      29.95S
MILFORD        CLOUDY    48  40  73 E7        30.01R
MOAB/CYNLANDS  PTCLDY    50  30  46 E5        29.91R
PRICE          PTCLDY    50  30  46 NW5       29.96S
ST GEORGE      MOSUNNY   61  37  41 SE7       29.94S
KANAB          PTCLDY    46  37  71 NW3       30.04S

$$

REGIONAL REPORTS     COLORADO/ARIZONA

CITY           SKY/WX    TMP DP  RH WIND       PRES   REMARKS
CRAIG, CO      CLOUDY    43  37  79 CALM      29.98R
GRAND JUNCTION CLOUDY    52  38  58 N7        29.92S
RIFLE          CLOUDY    50  41  71 S5        29.95S
MONTROSE       CLOUDY    47  37  68 SE9       29.98S
CORTEZ         CLOUDY    41  34  76 NE5       29.97S
PAGE, AZ       CLEAR     60  35  39 CALM      29.94F
GRAND CANYON   CLEAR     31  24  75 CALM      30.07F
KINGMAN        CLEAR     61  30  31 S9        29.93S
FLAGSTAFF      CLEAR     35  27  72 SW3       30.08F

$$

REGIONAL REPORTS    NEVADA/IDAHO/WYOMING

CITY           SKY/WX    TMP DP  RH WIND       PRES   REMARKS
LAS VEGAS, NV  PTCLDY    73  31  21 S6        29.81S
ELY            CLEAR     36  31  82 S8        30.07S WCI  30
ELKO           CLEAR     44  40  85 CALM      30.02S
POCATELLO, ID  CLEAR     54  38  54 SW14      29.95S
BURLEY         CLEAR     51  38  60 SW9       29.93S
EVANSTON, WY   CLOUDY    39  33  79 S6        30.05R WCI  35
ROCK SPRINGS   CLOUDY    44  38  79 E6        30.02F
KEMMERER         N/A     41  32  70 CALM      30.05S

$$




USA.gov is the U.S. government's official web portal to all federal, state and local government web resources and services.